Dakar 2012 3ème étape

Source : http://dakar.sport.francetv.fr/etapes

mardi 3 janvier : Liaison : 291 km - Spécial : 208 km.

Classement de la 3ème étape Moto - San Rafael - San Juan

RangNuméroPilote/EquipageEquipeMarque - ModèleTempsRetard
1 002 DESPRES Cyril TEAM RED BULL KTM KTM - 450cc Rally 03:48:38
2 015 VERHOEVEN Frans SHERCO RALLY RAID - CROCOAVENTURES SHERCO - SR 450 03:57:15 00:08:37
3 007 GONCALVES Paulo HUSQVARNA RALLYE TEAM BY SPEEDBRAIN Husqvarna - Rally 450 RR 03:57:17 00:08:39
4 003 RODRIGUES Helder TEAM YAMAHA RACING YAMAHA - WRF 450 03:58:41 00:10:03
5 014 CASTEU David TEAM YAMAHA RACING YAMAHA - 450 WRF Rally 04:00:20 00:11:42
6 001 COMA Marc KTM MRW RALLY DAKAR EAM KTM - 450 cc 04:01:42 00:13:04
7 004 LOPEZ Francisco GIOFIL APRILIA APRILIA - 450 RXV TUAREG 04:06:37 00:17:59
8 020 FARRES GUELL Gerard BORDONE-FERRARI KTM - 450 RALLY REPLICA 04:06:57 00:18:19
9 016 PAIN Olivier TEAM YAMAHA RACING YAMAHA - 450 YZF Rally 04:07:39 00:19:01
10 010 VILADOMS Jordi BORDONE-FERRARI KTM - Rally Replica 04:07:46 00:19:08
11 034 BOTTURI ALESSANDRO BORDONE-FERRARI KTM - 450 RALLY REPLICA 04:08:07 00:19:29
12 005 PEDRERO GARCIA Juan KTM MRW RALLY DAKAR EAM KTM - 450cc Rally 04:08:46 00:20:08
13 027 PIZZOLITO Javier HONDA RACING ARGENTINA HONDA - CRF 450X 04:09:13 00:20:35
14 031 JAKES Ivan NAD RESS ADVENTURE TEAM BMW - G450RR 04:12:34 00:23:56
15 032 SVITKO Stefan HANT LOGOMOTION SLOVAKIA KTM - 450 RR 04:13:53 00:25:15
16 113 FAGGOTTER Rodney HUSABERG RALLYE RACING AUSTRALIA HUSABERG - FE450 04:17:03 00:28:25
17 040 SERRADORI Mathieu KTM - 450 Rally 04:17:27 00:28:49
18 026 RODRIGUES FILHO Jose helio HUSQVARNA RALLYE TEAM BY SPEEDBRAIN HUQSVARNA - RALLY 450 RR 04:17:53 00:29:15
19 043 PISANO Michael MP CONCEPT KTM - 450 RR 04:18:19 00:29:41
20 021 AUBERT JOHNNY KTM RALLY FACTORY TEAM KTM - 450 RALLY 04:18:35 00:29:57
21 039 GYENES Emanuel VECTRA RACING KTM - 450 RR 04:19:10 00:30:32
22 017 CZACHOR Jacek ORLEN TEAM KTM - 450 Replica 04:19:23 00:30:45
23 025 GOUET Daniel TAMARUGAL HONDA RACING XC RALLY TEAM HONDA - CRF 450 X 04:19:37 00:30:59
24 018 KNUIMAN Henk WIM MOTORS DAKAR KTM - 450 REPLICA 04:21:22 00:32:44
25 024 STANOVNIK Miran TEAM SUGAWARA KTM - 450 R 04:21:32 00:32:54
26 012 PELLICER Jose Manuel HUSQVARNA RALLYE TEAM BY SPEEDBRAIN HUSQVARNA - Rally 450 RR 04:21:53 00:33:15
27 082 GUINDANI Vincent HFP YAMAHA - YZR 450 04:24:58 00:36:20
28 035 CECI Paolo BORDONE-FERRARI KTM - 450 RR 04:25:45 00:37:07
29 053 RODRIGUEZ Claudio TAMARUGAL HONDA RACING XC RALLY TEAM HONDA - CRF 450 X 04:32:10 00:43:32
30 110 BIRCH Christopher MEMO TOURS - ALFIE COX TEAM KTM - 450 Replica 04:34:14 00:45:36
31 173 MALO WILSON WILSON MALO KTM DEL ECUADOR KTM - 450 RALLY 2010 04:35:21 00:46:43
32 185 SANCHEZ MARCELO TEAM RPM KAWASAKI KAWASAKI - KLX 450 R 04:37:06 00:48:28
33 022 DUCLOS Alain GIOFIL APRILIA APRILIA - RXV 4.5 Rally 04:39:50 00:51:12
34 033 BETHYS Thierry YAMAHA - 450 YZF Rally 04:42:21 00:53:43
35 060 WATT Stanley FRONT ROW GB / CRECENT KTM KTM - 450 RR 04:42:28 00:53:50
36 050 SALVATIERRA Juan Carlos GHR HONDA HONDA - CRF450X 04:42:54 00:54:16
37 089 NASCIMENTO DENISIO PETROBRAS LUBRAX HONDA - CRF 450 04:43:23 00:54:45
38 059 CIOTTI Filippo FRANCO PICCO RACING RIEJU - MRT 450 04:43:50 00:55:12
39 042 PROHENS Jaime TAMARUGAL HONDA RACING XC RALLY TEAM HONDA - CRF 450X RALLY 04:44:49 00:56:11
40 041 PROHENS Felipe TAMARUGAL HONDA RACING XC RALLY TEAM HONDA (Transformada) - CRF450X RALLY 04:45:36 00:56:58
41 066 LORMAND Etienne ROUSSILL'HOTEL - HFP YAMAHA - 450 WRF 04:45:39 00:57:01
42 048 LIEFHEBBER Hans-jos KTM - 450 RR 04:45:50 00:57:12
43 006 ULLEVALSETER Pal Anders TEAM ULLEVALSETER KTM - 450 R 04:47:10 00:58:32
44 028 ZANOL FELIPE KTM BRASIL KTM - 450 Replica 04:47:48 00:59:10
45 081 SUESSE NED ADVRIDER/ NEDURO KTM - 450XCW 04:49:01 01:00:23
46 169 HEINRICH DEL VALLE EDUARDO X-RAID TEAM KTM - 450 RALLY FACTORY 04:49:33 01:00:55
47 049 DABROWSKI Marek ORLEN TEAM KTM - 450 RR 04:50:54 01:02:16
48 008 FARIA Ruben TEAM RED BULL KTM KTM - 450 CC RALLY 04:51:40 01:03:02
49 075 BUSIN Pablo MOTO TEAM BY ELF YAMAHA - 450 WR 04:51:52 01:03:14
50 138 LECOQ SEBASTIEN TEAM PERFORMANCE ENDURO YAMAHA - 450 YZFE 04:52:25 01:03:47

mardi 3 janvier

Classement général Moto

RangNuméroPilote/EquipageEquipeMarque - ModèleTempsRetard
1 002 DESPRES Cyril TEAM RED BULL KTM KTM - 450cc Rally 07:31:42
2 001 COMA Marc KTM MRW RALLY DAKAR EAM KTM - 450 cc 07:41:54 00:10:12
3 014 CASTEU David TEAM YAMAHA RACING YAMAHA - 450 WRF Rally 07:48:58 00:17:16
4 004 LOPEZ Francisco GIOFIL APRILIA APRILIA - 450 RXV TUAREG 07:49:19 00:17:37
5 003 RODRIGUES Helder TEAM YAMAHA RACING YAMAHA - WRF 450 07:51:31 00:19:49
6 007 GONCALVES Paulo HUSQVARNA RALLYE TEAM BY SPEEDBRAIN Husqvarna - Rally 450 RR 07:57:42 00:26:00
7 027 PIZZOLITO Javier HONDA RACING ARGENTINA HONDA - CRF 450X 07:59:03 00:27:21
8 010 VILADOMS Jordi BORDONE-FERRARI KTM - Rally Replica 08:00:08 00:28:26
9 005 PEDRERO GARCIA Juan KTM MRW RALLY DAKAR EAM KTM - 450cc Rally 08:00:43 00:29:01
10 020 FARRES GUELL Gerard BORDONE-FERRARI KTM - 450 RALLY REPLICA 08:02:42 00:31:00
11 015 VERHOEVEN Frans SHERCO RALLY RAID - CROCOAVENTURES SHERCO - SR 450 08:03:06 00:31:24
12 034 BOTTURI ALESSANDRO BORDONE-FERRARI KTM - 450 RALLY REPLICA 08:06:40 00:34:58
13 016 PAIN Olivier TEAM YAMAHA RACING YAMAHA - 450 YZF Rally 08:12:18 00:40:36
14 032 SVITKO Stefan HANT LOGOMOTION SLOVAKIA KTM - 450 RR 08:13:33 00:41:51
15 025 GOUET Daniel TAMARUGAL HONDA RACING XC RALLY TEAM HONDA - CRF 450 X 08:18:18 00:46:36
16 021 AUBERT JOHNNY KTM RALLY FACTORY TEAM KTM - 450 RALLY 08:18:58 00:47:16
17 026 RODRIGUES FILHO Jose helio HUSQVARNA RALLYE TEAM BY SPEEDBRAIN HUQSVARNA - RALLY 450 RR 08:19:12 00:47:30
18 017 CZACHOR Jacek ORLEN TEAM KTM - 450 Replica 08:20:14 00:48:32
19 024 STANOVNIK Miran TEAM SUGAWARA KTM - 450 R 08:26:18 00:54:36
20 018 KNUIMAN Henk WIM MOTORS DAKAR KTM - 450 REPLICA 08:27:48 00:56:06
21 031 JAKES Ivan NAD RESS ADVENTURE TEAM BMW - G450RR 08:29:30 00:57:48
22 035 CECI Paolo BORDONE-FERRARI KTM - 450 RR 08:30:05 00:58:23
23 039 GYENES Emanuel VECTRA RACING KTM - 450 RR 08:30:47 00:59:05
24 022 DUCLOS Alain GIOFIL APRILIA APRILIA - RXV 4.5 Rally 08:32:29 01:00:47
25 082 GUINDANI Vincent HFP YAMAHA - YZR 450 08:33:09 01:01:27
26 113 FAGGOTTER Rodney HUSABERG RALLYE RACING AUSTRALIA HUSABERG - FE450 08:33:46 01:02:04
27 040 SERRADORI Mathieu KTM - 450 Rally 08:33:47 01:02:05
28 043 PISANO Michael MP CONCEPT KTM - 450 RR 08:35:40 01:03:58
29 006 ULLEVALSETER Pal Anders TEAM ULLEVALSETER KTM - 450 R 08:38:00 01:06:18
30 012 PELLICER Jose Manuel HUSQVARNA RALLYE TEAM BY SPEEDBRAIN HUSQVARNA - Rally 450 RR 08:38:36 01:06:54
31 028 ZANOL FELIPE KTM BRASIL KTM - 450 Replica 08:45:22 01:13:40
32 008 FARIA Ruben TEAM RED BULL KTM KTM - 450 CC RALLY 08:46:32 01:14:50
33 110 BIRCH Christopher MEMO TOURS - ALFIE COX TEAM KTM - 450 Replica 08:49:27 01:17:45
34 053 RODRIGUEZ Claudio TAMARUGAL HONDA RACING XC RALLY TEAM HONDA - CRF 450 X 08:55:14 01:23:32
35 023 BARREDA BORT Joan HUSQVARNA RALLYE TEAM BY SPEEDBRAIN HUSQVARNA - Rally 450 RR 08:58:30 01:26:48
36 049 DABROWSKI Marek ORLEN TEAM KTM - 450 RR 08:59:46 01:28:04
37 033 BETHYS Thierry YAMAHA - 450 YZF Rally 09:02:07 01:30:25
38 048 LIEFHEBBER Hans-jos KTM - 450 RR 09:05:09 01:33:27
39 057 WILLEMSEN Daniel TEAM HONDA EUROPE HONDA - CRF 450 X 09:11:09 01:39:27
40 185 SANCHEZ MARCELO TEAM RPM KAWASAKI KAWASAKI - KLX 450 R 09:12:14 01:40:32
41 042 PROHENS Jaime TAMARUGAL HONDA RACING XC RALLY TEAM HONDA - CRF 450X RALLY 09:17:34 01:45:52
42 089 NASCIMENTO DENISIO PETROBRAS LUBRAX HONDA - CRF 450 09:17:47 01:46:05
43 148 GOMEZ Mauricio PACO GOMEZ RALLY TEAM YAMAHA - WR 450 09:19:43 01:48:01
44 173 MALO WILSON WILSON MALO KTM DEL ECUADOR KTM - 450 RALLY 2010 09:20:31 01:48:49
45 041 PROHENS Felipe TAMARUGAL HONDA RACING XC RALLY TEAM HONDA (Transformada) - CRF450X RALLY 09:20:59 01:49:17
46 060 WATT Stanley FRONT ROW GB / CRECENT KTM KTM - 450 RR 09:21:07 01:49:25
47 168 GUIRAL DEMIAN AVANT MOTOS HONDA GENUINE OIL HONDA - CRF 450X 09:32:44 02:01:02
48 081 SUESSE NED ADVRIDER/ NEDURO KTM - 450XCW 09:33:44 02:02:02
49 144 CURTIS Darryl MEMO TOURS - ALFIE COX TEAM KTM - 450 Replica 09:35:08 02:03:26
50 051 ARREDONDO Francisco TEAM GUATEMALA KTM - 450 RALLY 09:35:40 02:03:58
51 183 RODRIGUEZ Pablo HONDA RACING ARGENTINA HONDA - CRF450X 09:35:51 02:04:09
52 046 BIANCHI PRATA Pedro TEAM BIANCHI PRATA / VODAFONE HUSQUARNA - TE449 RALLY 09:37:16 02:05:34
53 064 SCHRÖDER DANIEL MEMO TOURS - ALFIE COX TEAM KTM - 450cc 09:38:05 02:06:23
54 164 DEMELCHORI DIEGO TEAM RPM KAWASAKI KAWASAKI - 2009 09:42:41 02:10:59
55 079 BOULANGER EDOUARD DAKAR CHALLENGE APRILIA - 450 RXV bicylindre 09:44:04 02:12:22
56 084 CARILLON Patrice KTM - 450 CC 09:44:41 02:12:59
57 045 SANZ PLA-GILIBERT Eulalia GAS GAS GAS - GAS - EC 450 09:48:17 02:16:35
58 145 NUTTALL Dean MEMO TOURS - ALFIE COX TEAM KTM - 450 Replica 09:49:20 02:17:38
59 030 GUASCH Marc GAS GAS GAS - GAS - EC 450 09:50:23 02:18:41
60 169 HEINRICH DEL VALLE EDUARDO X-RAID TEAM KTM - 450 RALLY FACTORY 09:53:22 02:21:40
61 066 LORMAND Etienne ROUSSILL'HOTEL - HFP YAMAHA - 450 WRF 09:53:51 02:22:09
62 062 SCHWARZ David HUSABERG RALLYE RACING AUSTRALIA HUSABERG - FE450 09:57:13 02:25:31
63 138 LECOQ SEBASTIEN TEAM PERFORMANCE ENDURO YAMAHA - 450 YZFE 10:01:42 02:30:00
64 055 MERKIT Kemal TURKISH TEAM KTM - 450 RALLY 10:03:56 02:32:14
65 059 CIOTTI Filippo FRANCO PICCO RACING RIEJU - MRT 450 10:04:06 02:32:24
66 154 GAJDOSECH ROBERTO ANTONIO ATUEL MOTOS YAMAHA - WR 450 10:04:12 02:32:30
67 086 MUNK Jes X-RAGE RACING KTM - 450 10:06:25 02:34:43
68 077 PICCO Franco FRANCO PICCO RACING YAMAHA - WRF 450 10:08:15 02:36:33
69 098 BLONDEAU CHRISTOPHE TEAM FRANROC YAMAHA - YZF 450 10:08:36 02:36:54
70 184 SAKIR SENKALAYCI TURKISH TEAM KTM - 450 RALLY EXC 10:14:23 02:42:41
71 056 MENARD Jean-Christophe HFP YAMAHA - 450 YZF 10:14:36 02:42:54
72 063 SAGHMEISTER Gabor KTM - 450 10:15:38 02:43:56
73 165 MULDER GEERT TEAM HONDA EUROPE HONDA - CFR 450 X 10:16:27 02:44:45
74 092 HAMARD Stephane REUNION RALLYE RAID KTM - 450 RR 10:17:11 02:45:29
75 114 FESANI ANDREA FRANCO PICCO RACING RIEJU - MOTO MRT450 10:18:27 02:46:45
76 181 RIOS FELIPE KTM PERU RALLY TEAM KTM - Rally Replica 10:19:01 02:47:19
77 061 MATTOS Dimas BRASIL MOTO TOUR KTM - 450 RR 10:20:49 02:49:07
78 058 PUERTAS HERRERA Miguel HIMOINSA DAKAR TEAM YAMAHA - 450 WR 10:24:32 02:52:50
79 071 BUTUZA Marcel BOANO HONDA - CRE F 450 X 10:24:37 02:52:55
80 087 MEILLAT Christophe C.M PROMO KAWASAKI - KLX 450 R 10:25:52 02:54:10
81 159 CHITTICK Jamie GHR HONDA HONDA - CRF450X 10:26:01 02:54:19
82 067 BALOOSHI MOHAMMED RED BULL KTM - 450 RR 10:26:26 02:54:44
83 100 VESELY Jan CZECH DAKAR TEAM YAMAHA - WR 450F 10:34:11 03:02:29
84 149 CIPKA DUSAN SLOVAKIA TURBOTEAM ZATKO BMW - G450X 10:37:15 03:05:33
85 068 BARROT David POWERBIKE YAMAHA IPONE YAMAHA - 450 IZF RALLY 10:38:16 03:06:34
86 122 PALANTE Eric WIM MOTORS RACING DIVISION KTM - 450 RR FREVA 10:39:13 03:07:31
87 080 PASCUAL Pablo oscar JINCHENG TEAM JINCHENG - JC450Y 10:41:49 03:10:07
88 177 VAN GEEL MARCO TEAM HONDA EUROPE HONDA - CFR 450 X 10:42:06 03:10:24
89 131 THEURIOT Herve REVIVAL AVENTURES YAMAHA - 450 WRF 10:42:14 03:10:32
90 065 LAZARD Laurent MOTO TEAM BY ELF YAMAHA - WR 450 10:45:39 03:13:57
91 072 GOUNON SERGE EMS KTM - 450 RR 10:54:51 03:23:09
92 074 KOFMAN Erik KTM - 450 RR 10:56:19 03:24:37
93 029 BERGLUND Thomas HUSABERG RALLY TEAM SCANDINAVIA HUSABERG - FE 450 10:57:31 03:25:49
94 075 BUSIN Pablo MOTO TEAM BY ELF YAMAHA - 450 WR 10:57:49 03:26:07
95 116 GEOFFROY Christophe TB RACING HONDA - F 450 XE 11:01:03 03:29:21
96 091 TONETTI NICOLA TEAM BOANO HONDA - CRF 450 X 11:04:14 03:32:32
97 076 PEDERZOLI Claudio ON-OFF RACING TEAM YAMAHA - WR 450 11:06:31 03:34:49
98 107 BODINGER Ronnie HUSABERG FACTORY TEAM HUSABERG - FE 450 11:16:50 03:45:08
99 174 MARTÍNEZ Paco PACO MARTINEZ KAWASAKI - KX450 11:19:58 03:48:16
100 136 IGARIS GINTAUTAS YAMAHA - WR450F 11:24:29 03:52:47
101 178 VAN WOERKUM JAN TEAM HONDA EUROPE HONDA - CFR 450 X 11:27:06 03:55:24
102 093 GOMEZ Jorge VEMOTOR CANARIAS Husqvarna - 450cc 11:35:03 04:03:21
103 151 BEALUSTEGUI Juan Manuel AL LIMITE DAKAR 2012 YAMAHA - WR 450 F 12:01:11 04:29:29
104 170 KREIDL FERDINAND KLS ADVANCE RALLYE RAID TEAM KTM - 450 Replica 12:03:20 04:31:38
105 106 EMBRO JAMES MEMO TOURS - ALFIE COX TEAM KTM - 450 RALLY 12:09:26 04:37:44
106 150 BELAUSTEGUI Luis FREEDOM RALLY RACING KTM - SX 150 12:10:40 04:38:58
107 102 ALAN Eduardo ELF ARGENTINA Yamaha - WR 450 12:12:41 04:40:59
108 126 MUTELET Olivier AL DESERT YAMAHA - 450 WRF 12:13:57 04:42:15
109 104 DE BENEDICTIS NETO Vicente Beta - RR 450 12:14:06 04:42:24
110 117 GHITTI Federico RALLY RACING KTM - 450 RALLY 12:15:38 04:43:56
111 157 CERDERA SERGIO TEAM RPM KAWASAKI KAWASAKI - KLX 450 12:16:45 04:45:03
112 120 ILLANES Rodrigo TARAPACA RALLY TEAM Husqvarna - TE 449 12:23:05 04:51:23
113 096 CID DE LA PAZ Pablo PCP ASISTENCIA / MED BETA - RR 450 12:23:11 04:51:29
114 050 SALVATIERRA Juan Carlos GHR HONDA HONDA - CRF450X 12:23:52 04:52:10
115 172 LUCCHESE MANUEL HUSABERG FACTORY TEAM HUSABERG - FE 450 RALLY 12:27:05 04:55:23
116 108 STEVENSON Iain MEMO TOURS - ALFIE COX TEAM KTM - 450 RALLY 12:28:38 04:56:56
117 112 GUYOMARC?H Yannick SCE PERFORMANCE / ASA POMPIERS DE PARIS YAMAHA - WRF 12:31:58 05:00:16
118 109 BUDWEG ARNDT BRASIL MOTO TOUR KTM - 450 RR 12:33:38 05:01:56
119 182 ZATKO JAN SLOVAKIA TURBOTEAM ZATKO BMW - G450X 12:37:29 05:05:47
120 140 REINIKE MARCO MARCO REINIKE KTM - 450 RALLY REPLICA 12:40:24 05:08:42
121 073 BONY BRUNO EMS KTM - 450 RR 12:41:26 05:09:44
122 128 ANO Julio TEAM NORMAND RAID YAMAHA - WRF 450 12:41:26 05:09:44
123 097 LAGRIVE MATTHIEU TEAM YAMAHA RACING YAMAHA - WR 450 cc Rally 12:44:57 05:13:15
124 158 VELLUTINO Carlo PERUANOS AL DAKAR KTM - 450 EXC 2011 12:55:23 05:23:41
125 099 CHERPIN Pierre KTM - 450 RR 12:57:57 05:26:15
126 176 RAAF Greg MEMO TOURS - ALFIE COX TEAM KTM - 450 Replica 12:59:16 05:27:34
127 090 DIGUIET Gilles KTM - 450 CC 13:00:23 05:28:41
128 095 MAZET Jean-Claude JCM RALLYE RAID KTM - 450 RR 13:04:30 05:32:48
129 115 BASSI GUSTAVO JVO RAGING YAMAHA PERGAMINO MOTO YAMAHA - WR 450 13:08:15 05:36:33
130 129 DEPOORTER Philippe WIM MOTORS DAKAR KTM - 450 13:20:56 05:49:14
131 069 PAYEN Hugo YAMAHA - 450 WRF 13:26:17 05:54:35
132 111 ESPINASSE SYLVAIN SHERCO RALLY RAID - CROCOAVENTURES SHERCO - SR 450 13:28:43 05:57:01
133 124 TARLINGTON Craig WARTHOG RALLYE TEAM KTM - 450 RALLY 13:33:55 06:02:13
134 105 BARRON Jacques PERUANOS AL DAKAR KTM - 450 EXL 13:40:47 06:09:05
135 094 WEI Guanghui JINCHENG TEAM JINCHENG - JC 450Y 13:48:50 06:17:08
136 135 SCOTT-WILLIAMS Neil MEMO TOURS - ALFIE COX TEAM KTM - 450 Replica 13:52:11 06:20:29
137 186 VAN GERVEN JAN GHR HONDA HONDA - CRF 450 X 14:47:57 07:16:15
138 152 TER BEEK RONALD GHR HONDA HONDA - CFR 450 X 15:49:37 08:17:55
139 179 PETRONE Sergio MISION EZEIZA DAKAR BETA - 450 16:20:08 08:48:26
140 127 KARATHANASSIS THEOCHARIS YAMAHA - 450 16:51:39 09:19:57
141 085 PENATE MUNOZ Pedro Manuel KH7 VALSEBIKE KTM - 450 16:55:48 09:24:06
142 125 ASTORI Gianernesto ABC RALLY ACTION TEAM KTM - 450 RR 16:58:34 09:26:52
143 121 DAVIDSON Mark FREEDOM RALLY RACING KTM - 450 RALLYE REPLICA 17:23:51 09:52:09
144 155 GALLO ANDREA FRANCO PICCO RACING YAMAHA - WRF 450 17:30:11 09:58:29
145 130 DETANG Dominique SHERCO RALLY RAID - CROCOAVENTURES SHERCO - SR 450 17:43:07 10:11:25
146 156 BARBERY Juan Jose MOTOMAX-HELMET RALLY TEAM BETA - RR 450 18:50:31 11:18:49
147 180 PICKERING Jago DESERT ROSE RACING KTM - 450EXC 18:53:01 11:21:19
148 147 STANFIELD Michael FREEDOM RALLY RACING KTM - 450 EXC 19:01:01 11:29:19
149 133 SCHNEIDER CHARLES SHERCO RALLY RAID - CROCOAVENTURES SHERCO - SR 450 20:42:28 13:10:46
150 153 BEKTAS SELCUK TURKISH TEAM KTM - 450 RALLY EXC 21:48:40 14:16:58
151 161 ORLANDO SALVATORE TEAM AL DESERT YAMAHA - 450WRF JVO 21:58:59 14:27:17
152 142 CAREVIC Andrés INSTITUTO NACIONAL DEL DEPORTE YAMAHA - 450 WR 22:00:07 14:28:25
153 187 YOUNGER TOBIAS DESERT ROSE RACING KTM - 450EXC 22:00:19 14:28:37
154 160 HAMEL ERIC YAMAHA - 450 WRF 22:04:20 14:32:38
155 162 FLAMBERT OLIVIER TEAM AL DESERT YAMAHA - 450 WR 22:19:05 14:47:23

 

 

 

Créer un site gratuit avec e-monsite - Signaler un contenu illicite sur ce site